Time,TemperatureF,DewpointF,PressureIn,WindDirection,WindDirectionDegrees,WindSpeedMPH,WindSpeedGustMPH,Humidity,HourlyPrecipIn,Conditions,Clouds,dailyrainin,SoftwareType,DateUTC
2013-05-15 00:02:00,57.5,48.5,29.97,North,0,0.0,0.8,72,0.00,,,0.00,WUHU216HW,2013-05-14 22:02:00,
2013-05-15 00:07:00,56.8,48.2,29.96,North,0,0.0,0.8,73,0.00,,,0.00,WUHU216HW,2013-05-14 22:07:00,
2013-05-15 00:12:00,56.6,48.5,29.96,North,0,0.0,0.0,74,0.00,,,0.00,WUHU216HW,2013-05-14 22:12:00,
2013-05-15 00:17:00,56.6,48.3,29.96,ENE,68,0.0,0.0,74,0.00,,,0.00,WUHU216HW,2013-05-14 22:17:00,
2013-05-15 00:22:00,56.8,48.5,29.96,East,90,0.0,0.0,74,0.00,,,0.00,WUHU216HW,2013-05-14 22:22:00,
2013-05-15 00:27:00,56.8,48.7,29.96,East,90,0.0,0.8,74,0.00,,,0.00,WUHU216HW,2013-05-14 22:27:00,
2013-05-15 00:32:00,57.2,48.9,29.96,ESE,113,0.0,0.8,74,0.00,,,0.00,WUHU216HW,2013-05-14 22:32:00,
2013-05-15 00:37:00,57.3,48.7,29.96,ESE,113,0.0,1.5,73,0.00,,,0.00,WUHU216HW,2013-05-14 22:37:00,
2013-05-15 00:42:00,57.5,48.9,29.95,East,90,0.0,1.5,73,0.00,,,0.00,WUHU216HW,2013-05-14 22:42:00,
2013-05-15 00:47:00,57.7,48.7,29.95,East,90,0.0,1.1,72,0.00,,,0.00,WUHU216HW,2013-05-14 22:47:00,
2013-05-15 00:52:00,57.7,49.1,29.94,North,0,0.0,0.0,73,0.00,,,0.00,WUHU216HW,2013-05-14 22:52:00,
2013-05-15 00:57:00,57.7,48.7,29.94,ENE,68,0.0,0.0,72,0.00,,,0.00,WUHU216HW,2013-05-14 22:57:00,
2013-05-15 01:02:00,57.7,48.7,29.94,East,90,0.0,0.0,72,0.00,,,0.00,WUHU216HW,2013-05-14 23:02:00,
2013-05-15 01:07:00,57.7,48.7,29.94,ENE,68,0.0,0.6,72,0.00,,,0.00,WUHU216HW,2013-05-14 23:07:00,
2013-05-15 01:12:00,57.5,48.5,29.94,ESE,113,1.3,2.2,72,0.00,,,0.00,WUHU216HW,2013-05-14 23:12:00,
2013-05-15 01:17:00,57.5,48.5,29.94,East,90,1.3,2.2,72,0.00,,,0.00,WUHU216HW,2013-05-14 23:17:00,
2013-05-15 01:22:00,57.7,48.7,29.94,SE,135,0.0,1.5,72,0.00,,,0.00,WUHU216HW,2013-05-14 23:22:00,
2013-05-15 01:27:00,57.7,48.7,29.94,ESE,113,0.0,1.1,72,0.00,,,0.00,WUHU216HW,2013-05-14 23:27:00,
2013-05-15 01:32:00,57.7,48.7,29.94,ENE,68,0.0,0.0,72,0.00,,,0.00,WUHU216HW,2013-05-14 23:32:00,
2013-05-15 01:37:00,57.7,49.1,29.94,North,0,1.1,1.1,73,0.00,,,0.00,WUHU216HW,2013-05-14 23:37:00,
2013-05-15 01:42:00,57.0,48.7,29.94,North,0,1.3,1.3,74,0.00,,,0.00,WUHU216HW,2013-05-14 23:42:00,
2013-05-15 01:47:00,56.3,48.0,29.94,SSW,203,0.0,1.3,74,0.00,,,0.00,WUHU216HW,2013-05-14 23:47:00,
2013-05-15 01:52:00,55.9,48.0,29.95,SW,225,0.0,0.0,75,0.00,,,0.00,WUHU216HW,2013-05-14 23:52:00,
2013-05-15 01:57:00,55.9,48.4,29.95,East,90,0.0,1.3,76,0.00,,,0.00,WUHU216HW,2013-05-14 23:57:00,
2013-05-15 02:02:00,55.9,48.4,29.94,SE,135,0.0,1.3,76,0.00,,,0.00,WUHU216HW,2013-05-15 00:02:00,
2013-05-15 02:07:00,55.9,48.4,29.94,East,90,0.0,1.3,76,0.00,,,0.00,WUHU216HW,2013-05-15 00:07:00,
2013-05-15 02:12:00,55.9,48.4,29.94,East,90,1.5,1.5,76,0.00,,,0.00,WUHU216HW,2013-05-15 00:12:00,
2013-05-15 02:18:00,56.3,48.4,29.94,North,0,0.0,1.5,76,0.00,,,0.00,WUHU216HW,2013-05-15 00:18:00,
2013-05-15 02:23:00,56.3,48.7,29.94,NNE,23,0.0,0.0,75,0.00,,,0.00,WUHU216HW,2013-05-15 00:23:00,
2013-05-15 02:29:00,55.9,48.0,29.94,North,0,0.0,0.0,75,0.00,,,0.00,WUHU216HW,2013-05-15 00:29:00,
2013-05-15 02:34:00,55.5,48.0,29.94,North,0,0.0,0.0,76,0.00,,,0.00,WUHU216HW,2013-05-15 00:34:00,
2013-05-15 02:39:00,55.4,47.9,29.94,NNE,23,0.0,0.0,76,0.00,,,0.00,WUHU216HW,2013-05-15 00:39:00,
2013-05-15 02:44:00,55.2,47.7,29.94,ENE,68,0.0,0.0,76,0.00,,,0.00,WUHU216HW,2013-05-15 00:44:00,
2013-05-15 02:49:00,55.2,47.7,29.94,NE,45,0.0,0.0,76,0.00,,,0.00,WUHU216HW,2013-05-15 00:49:00,
2013-05-15 02:54:00,55.2,48.0,29.94,East,90,1.3,1.3,77,0.00,,,0.00,WUHU216HW,2013-05-15 00:54:00,
2013-05-15 02:59:00,55.7,48.2,29.93,NNE,23,0.0,1.3,76,0.00,,,0.00,WUHU216HW,2013-05-15 00:59:00,
2013-05-15 03:04:00,55.9,48.4,29.93,ENE,68,0.0,0.0,76,0.00,,,0.00,WUHU216HW,2013-05-15 01:04:00,
2013-05-15 03:09:00,55.9,48.4,29.93,NE,45,0.0,0.0,76,0.00,,,0.00,WUHU216HW,2013-05-15 01:09:00,
2013-05-15 03:14:00,55.9,48.4,29.92,NNE,23,0.0,0.0,76,0.00,,,0.00,WUHU216HW,2013-05-15 01:14:00,
2013-05-15 03:19:00,55.5,48.0,29.92,NNE,23,0.0,0.0,76,0.00,,,0.00,WUHU216HW,2013-05-15 01:19:00,
2013-05-15 03:24:00,55.5,48.0,29.91,NNE,23,0.0,0.0,76,0.00,,,0.00,WUHU216HW,2013-05-15 01:24:00,
2013-05-15 03:29:00,55.5,48.4,29.91,NNE,23,0.0,0.0,77,0.00,,,0.00,WUHU216HW,2013-05-15 01:29:00,
2013-05-15 03:34:00,55.2,47.9,29.91,NNW,338,0.0,1.5,77,0.00,,,0.00,WUHU216HW,2013-05-15 01:34:00,
2013-05-15 03:39:00,54.3,47.2,29.91,North,0,0.0,1.5,77,0.00,,,0.00,WUHU216HW,2013-05-15 01:39:00,
2013-05-15 03:44:00,54.1,47.0,29.91,North,0,0.0,0.0,77,0.00,,,0.00,WUHU216HW,2013-05-15 01:44:00,
2013-05-15 03:49:00,54.1,47.0,29.91,NW,315,0.0,0.0,77,0.00,,,0.00,WUHU216HW,2013-05-15 01:49:00,
2013-05-15 03:54:00,54.1,47.0,29.91,WSW,248,0.0,0.0,77,0.00,,,0.00,WUHU216HW,2013-05-15 01:54:00,
2013-05-15 03:59:00,54.6,47.5,29.91,West,270,0.0,1.5,77,0.00,,,0.00,WUHU216HW,2013-05-15 01:59:00,
2013-05-15 04:04:00,55.0,47.9,29.91,West,270,0.0,1.5,77,0.00,,,0.00,WUHU216HW,2013-05-15 02:04:00,
2013-05-15 04:09:00,55.0,47.9,29.90,North,0,0.0,0.8,77,0.00,,,0.00,WUHU216HW,2013-05-15 02:09:00,
2013-05-15 04:14:00,54.1,47.2,29.90,North,0,0.0,0.0,77,0.00,,,0.00,WUHU216HW,2013-05-15 02:14:00,
2013-05-15 04:19:00,53.7,46.7,29.90,North,0,0.0,0.0,77,0.00,,,0.00,WUHU216HW,2013-05-15 02:19:00,
2013-05-15 04:24:00,53.4,46.4,29.90,ESE,113,0.0,0.0,77,0.00,,,0.00,WUHU216HW,2013-05-15 02:24:00,
2013-05-15 04:29:00,53.4,46.0,29.89,ESE,113,0.0,0.0,76,0.00,,,0.00,WUHU216HW,2013-05-15 02:29:00,
2013-05-15 04:34:00,53.7,46.3,29.89,NNE,23,0.0,0.0,76,0.00,,,0.00,WUHU216HW,2013-05-15 02:34:00,
2013-05-15 04:39:00,53.9,46.5,29.89,NE,45,0.0,0.0,76,0.00,,,0.00,WUHU216HW,2013-05-15 02:39:00,
2013-05-15 04:44:00,54.3,46.8,29.90,North,0,0.8,0.8,76,0.00,,,0.00,WUHU216HW,2013-05-15 02:44:00,
2013-05-15 04:49:00,54.1,46.7,29.90,NNE,23,0.0,0.8,76,0.00,,,0.00,WUHU216HW,2013-05-15 02:49:00,
2013-05-15 04:54:00,53.9,46.5,29.90,NNE,23,0.0,0.8,76,0.00,,,0.00,WUHU216HW,2013-05-15 02:54:00,
2013-05-15 04:59:00,53.9,46.5,29.90,NNE,23,0.0,0.0,76,0.00,,,0.00,WUHU216HW,2013-05-15 02:59:00,
2013-05-15 05:04:00,54.1,46.7,29.90,North,0,0.0,0.0,76,0.00,,,0.00,WUHU216HW,2013-05-15 03:04:00,
2013-05-15 05:09:00,53.9,46.5,29.89,NNE,23,0.0,0.0,76,0.00,,,0.00,WUHU216HW,2013-05-15 03:09:00,
2013-05-15 05:16:00,53.9,46.5,29.89,NW,315,0.0,0.0,76,0.00,,,0.00,WUHU216HW,2013-05-15 03:16:00,
2013-05-15 05:21:00,53.7,46.3,29.90,NNW,338,1.3,1.3,76,0.00,,,0.00,WUHU216HW,2013-05-15 03:21:00,
2013-05-15 05:26:00,53.6,46.2,29.89,East,90,0.0,1.3,76,0.00,,,0.00,WUHU216HW,2013-05-15 03:26:00,
2013-05-15 05:31:00,53.7,46.3,29.89,SE,135,0.0,0.8,76,0.00,,,0.00,WUHU216HW,2013-05-15 03:31:00,
2013-05-15 05:36:00,54.1,46.3,29.89,East,90,0.0,0.8,75,0.00,,,0.00,WUHU216HW,2013-05-15 03:36:00,
2013-05-15 05:41:00,54.5,46.7,29.89,ENE,68,0.0,0.8,75,0.00,,,0.00,WUHU216HW,2013-05-15 03:41:00,
2013-05-15 05:46:00,55.0,47.5,29.89,ENE,68,1.3,1.3,76,0.00,,,0.00,WUHU216HW,2013-05-15 03:46:00,
2013-05-15 05:51:00,55.4,47.9,29.89,East,90,1.5,2.0,76,0.00,,,0.00,WUHU216HW,2013-05-15 03:51:00,
2013-05-15 05:56:00,55.5,48.4,29.89,NNE,23,0.0,2.0,77,0.00,,,0.00,WUHU216HW,2013-05-15 03:56:00,
2013-05-15 06:01:00,55.5,48.4,29.89,ENE,68,0.0,0.0,77,0.00,,,0.00,WUHU216HW,2013-05-15 04:01:00,
2013-05-15 06:06:00,55.4,48.2,29.89,East,90,0.0,0.0,77,0.00,,,0.00,WUHU216HW,2013-05-15 04:06:00,
2013-05-15 06:11:00,55.2,48.0,29.89,NNE,23,0.0,0.8,77,0.00,,,0.00,WUHU216HW,2013-05-15 04:11:00,
2013-05-15 06:16:00,54.8,47.7,29.89,NNE,23,0.0,0.8,77,0.00,,,0.00,WUHU216HW,2013-05-15 04:16:00,
2013-05-15 06:21:00,54.6,47.5,29.89,NW,315,0.0,0.0,77,0.00,,,0.00,WUHU216HW,2013-05-15 04:21:00,
2013-05-15 06:26:00,55.0,47.9,29.89,NW,315,0.0,0.0,77,0.00,,,0.00,WUHU216HW,2013-05-15 04:26:00,
2013-05-15 06:31:00,55.2,48.0,29.89,NW,315,0.0,0.0,77,0.00,,,0.00,WUHU216HW,2013-05-15 04:31:00,
2013-05-15 06:36:00,55.5,48.4,29.89,West,270,0.0,0.0,77,0.00,,,0.00,WUHU216HW,2013-05-15 04:36:00,
2013-05-15 06:41:00,55.2,48.0,29.89,West,270,0.0,2.2,77,0.00,,,0.00,WUHU216HW,2013-05-15 04:41:00,
2013-05-15 06:46:00,55.0,47.9,29.90,West,270,0.0,2.2,77,0.00,,,0.00,WUHU216HW,2013-05-15 04:46:00,
2013-05-15 06:51:00,55.0,47.9,29.90,West,270,0.0,0.6,77,0.00,,,0.00,WUHU216HW,2013-05-15 04:51:00,
2013-05-15 06:56:00,55.0,47.9,29.90,West,270,0.0,0.0,77,0.00,,,0.00,WUHU216HW,2013-05-15 04:56:00,
2013-05-15 07:01:00,55.5,48.4,29.90,WSW,248,0.0,0.0,77,0.00,,,0.00,WUHU216HW,2013-05-15 05:01:00,
2013-05-15 07:06:00,55.9,48.4,29.91,SSW,203,0.0,0.0,76,0.00,,,0.00,WUHU216HW,2013-05-15 05:06:00,
2013-05-15 07:11:00,56.3,48.7,29.90,SW,225,2.4,2.4,76,0.00,,,0.00,WUHU216HW,2013-05-15 05:11:00,
2013-05-15 07:16:00,56.4,48.9,29.90,South,180,0.0,3.1,76,0.00,,,0.00,WUHU216HW,2013-05-15 05:16:00,
2013-05-15 07:21:00,57.3,49.4,29.91,SSW,206,1.8,3.1,75,0.00,,,0.00,WUHU216HW,2013-05-15 05:21:00,
2013-05-15 07:26:00,57.9,49.6,29.91,SW,225,2.3,2.9,74,0.00,,,0.00,WUHU216HW,2013-05-15 05:26:00,
2013-05-15 07:31:00,58.4,50.1,29.91,SSE,158,0.8,3.5,74,0.00,,,0.00,WUHU216HW,2013-05-15 05:31:00,
2013-05-15 07:37:00,60.0,51.0,29.90,SSE,158,0.0,3.5,72,0.00,,,0.00,WUHU216HW,2013-05-15 05:37:00,
2013-05-15 07:42:00,61.8,52.0,29.90,South,180,0.0,0.6,70,0.00,,,0.00,WUHU216HW,2013-05-15 05:42:00,
2013-05-15 07:47:00,63.6,52.5,29.90,ENE,68,0.0,0.0,67,0.00,,,0.00,WUHU216HW,2013-05-15 05:47:00,
2013-05-15 07:52:00,64.5,52.5,29.91,NE,45,0.0,0.0,65,0.00,,,0.00,WUHU216HW,2013-05-15 05:52:00,
2013-05-15 07:57:00,64.7,51.9,29.91,West,270,0.0,0.0,63,0.00,,,0.00,WUHU216HW,2013-05-15 05:57:00,
2013-05-15 08:02:00,65.3,51.9,29.91,SE,135,0.0,0.0,62,0.00,,,0.00,WUHU216HW,2013-05-15 06:02:00,
2013-05-15 08:07:00,66.3,52.5,29.91,East,90,0.0,0.0,61,0.00,,,0.00,WUHU216HW,2013-05-15 06:07:00,
2013-05-15 08:12:00,66.9,52.1,29.91,NE,45,3.1,3.1,59,0.00,,,0.00,WUHU216HW,2013-05-15 06:12:00,
2013-05-15 08:17:00,66.9,52.1,29.91,ENE,68,0.0,3.1,59,0.00,,,0.00,WUHU216HW,2013-05-15 06:17:00,
2013-05-15 08:22:00,66.0,52.2,29.91,North,11,1.6,2.4,61,0.00,,,0.00,WUHU216HW,2013-05-15 06:22:00,
2013-05-15 08:27:00,66.9,52.6,29.91,North,0,2.6,2.6,60,0.00,,,0.00,WUHU216HW,2013-05-15 06:27:00,
2013-05-15 08:32:00,67.1,50.8,29.91,NE,53,2.2,3.1,56,0.00,,,0.00,WUHU216HW,2013-05-15 06:32:00,
2013-05-15 08:37:00,67.8,51.9,29.91,North,0,1.5,3.1,57,0.00,,,0.00,WUHU216HW,2013-05-15 06:37:00,
2013-05-15 08:42:00,67.8,52.4,29.91,North,0,1.3,1.5,58,0.00,,,0.00,WUHU216HW,2013-05-15 06:42:00,
2013-05-15 08:47:00,68.3,53.9,29.91,East,90,0.0,1.5,60,0.00,,,0.00,WUHU216HW,2013-05-15 06:47:00,
2013-05-15 08:52:00,68.5,53.6,29.91,South,180,0.0,1.3,59,0.00,,,0.00,WUHU216HW,2013-05-15 06:52:00,
2013-05-15 08:57:00,68.3,53.9,29.91,East,90,0.0,1.3,60,0.00,,,0.00,WUHU216HW,2013-05-15 06:57:00,
2013-05-15 09:02:00,69.4,54.3,29.91,ENE,68,2.0,2.0,59,0.00,,,0.00,WUHU216HW,2013-05-15 07:02:00,
2013-05-15 09:07:00,69.0,52.6,29.91,North,0,2.4,2.9,56,0.00,,,0.00,WUHU216HW,2013-05-15 07:07:00,
2013-05-15 09:13:00,68.9,53.5,29.90,NNE,23,0.0,2.9,58,0.00,,,0.00,WUHU216HW,2013-05-15 07:13:00,
2013-05-15 09:18:00,68.9,52.5,29.91,NNW,338,1.4,1.5,56,0.00,,,0.00,WUHU216HW,2013-05-15 07:18:00,
2013-05-15 09:23:00,68.5,52.6,29.91,North,0,0.0,2.0,57,0.00,,,0.00,WUHU216HW,2013-05-15 07:23:00,
2013-05-15 09:28:00,68.1,52.7,29.90,West,270,0.0,2.0,58,0.00,,,0.00,WUHU216HW,2013-05-15 07:28:00,
2013-05-15 09:33:00,67.8,52.4,29.90,WNW,303,1.4,2.0,58,0.00,,,0.00,WUHU216HW,2013-05-15 07:33:00,
2013-05-15 09:38:00,67.6,52.7,29.90,WSW,248,2.2,3.8,59,0.00,,,0.00,WUHU216HW,2013-05-15 07:38:00,
2013-05-15 09:43:00,67.6,52.3,29.90,NW,315,1.5,3.8,58,0.00,,,0.00,WUHU216HW,2013-05-15 07:43:00,
2013-05-15 09:48:00,68.1,52.7,29.90,NNW,338,0.0,2.2,58,0.00,,,0.00,WUHU216HW,2013-05-15 07:48:00,
2013-05-15 09:53:00,69.0,52.1,29.90,North,0,2.2,2.2,55,0.00,,,0.00,WUHU216HW,2013-05-15 07:53:00,
2013-05-15 09:58:00,68.7,51.8,29.89,NE,45,2.4,2.4,55,0.00,,,0.00,WUHU216HW,2013-05-15 07:58:00,
2013-05-15 10:03:00,69.4,52.8,29.89,NW,315,2.2,2.4,56,0.00,,,0.00,WUHU216HW,2013-05-15 08:03:00,
2013-05-15 10:08:00,69.9,53.0,29.89,West,270,0.0,2.2,55,0.00,,,0.00,WUHU216HW,2013-05-15 08:08:00,
2013-05-15 10:13:00,70.1,52.7,29.89,NW,315,0.8,2.9,54,0.00,,,0.00,WUHU216HW,2013-05-15 08:13:00,
2013-05-15 10:18:00,70.7,52.6,29.89,ENE,57,2.1,2.9,53,0.00,,,0.00,WUHU216HW,2013-05-15 08:18:00,
2013-05-15 10:35:00,71.6,52.9,29.87,North,0,0.0,0.0,52,0.00,,,0.00,WUHU216HW,2013-05-15 08:35:00,
2013-05-15 10:40:00,71.6,53.4,29.87,SSE,158,0.0,0.0,53,0.00,,,0.00,WUHU216HW,2013-05-15 08:40:00,
2013-05-15 10:46:00,72.3,53.1,29.87,West,270,0.0,0.0,51,0.00,,,0.00,WUHU216HW,2013-05-15 08:46:00,
2013-05-15 10:51:00,73.4,53.6,29.87,WNW,293,0.0,0.6,50,0.00,,,0.00,WUHU216HW,2013-05-15 08:51:00,
2013-05-15 10:56:00,73.2,52.8,29.87,NNW,338,2.9,2.9,49,0.00,,,0.00,WUHU216HW,2013-05-15 08:56:00,
2013-05-15 11:01:00,72.5,52.1,29.87,SW,225,2.4,3.8,49,0.00,,,0.00,WUHU216HW,2013-05-15 09:01:00,
2013-05-15 11:07:00,72.6,51.7,29.86,South,180,8.9,8.9,48,0.00,,,0.00,WUHU216HW,2013-05-15 09:07:00,
2013-05-15 11:12:00,73.2,51.0,29.87,SW,225,10.5,13.6,46,0.00,,,0.00,WUHU216HW,2013-05-15 09:12:00,
2013-05-15 11:22:00,74.1,50.7,29.87,SSW,203,9.8,9.8,44,0.00,,,0.00,WUHU216HW,2013-05-15 09:22:00,
2013-05-15 11:27:00,74.1,50.1,29.87,SW,225,10.4,13.8,43,0.00,,,0.00,WUHU216HW,2013-05-15 09:27:00,
2013-05-15 11:32:00,73.9,49.3,29.88,SSE,158,8.8,13.8,42,0.00,,,0.00,WUHU216HW,2013-05-15 09:32:00,
2013-05-15 11:37:00,74.4,49.2,29.87,South,180,3.1,11.6,41,0.00,,,0.00,WUHU216HW,2013-05-15 09:37:00,
2013-05-15 11:42:00,75.0,49.7,29.87,SSW,199,5.2,6.9,41,0.00,,,0.00,WUHU216HW,2013-05-15 09:42:00,
2013-05-15 11:47:00,75.3,50.0,29.87,ESE,121,5.2,11.1,41,0.00,,,0.00,WUHU216HW,2013-05-15 09:47:00,
2013-05-15 11:52:00,75.3,50.6,29.87,SSW,203,3.8,11.1,42,0.00,,,0.00,WUHU216HW,2013-05-15 09:52:00,
2013-05-15 11:57:00,75.9,50.5,29.87,SSE,158,6.4,10.5,41,0.00,,,0.00,WUHU216HW,2013-05-15 09:57:00,
2013-05-15 12:05:00,75.5,49.7,29.87,SSE,158,4.2,6.4,40,0.00,,,0.00,WUHU216HW,2013-05-15 10:05:00,
2013-05-15 12:10:00,75.2,50.5,29.87,SSW,203,1.7,7.6,42,0.00,,,0.00,WUHU216HW,2013-05-15 10:10:00,
2013-05-15 12:15:00,75.0,49.7,29.87,SE,135,9.9,12.9,41,0.00,,,0.00,WUHU216HW,2013-05-15 10:15:00,
2013-05-15 12:20:00,74.6,49.3,29.87,South,180,5.8,12.9,41,0.00,,,0.00,WUHU216HW,2013-05-15 10:20:00,
2013-05-15 12:25:00,74.8,50.1,29.87,ESE,113,7.8,7.8,42,0.00,,,0.00,WUHU216HW,2013-05-15 10:25:00,
2013-05-15 12:30:00,75.0,50.6,29.87,South,175,2.4,7.8,42,0.00,,,0.00,WUHU216HW,2013-05-15 10:30:00,
2013-05-15 12:35:00,75.9,51.1,29.87,SE,135,6.9,7.8,42,0.00,,,0.00,WUHU216HW,2013-05-15 10:35:00,
2013-05-15 12:40:00,75.7,49.7,29.87,SSE,158,8.5,8.5,40,0.00,,,0.00,WUHU216HW,2013-05-15 10:40:00,
2013-05-15 12:45:00,75.9,49.1,29.87,South,180,3.8,12.3,39,0.00,,,0.00,WUHU216HW,2013-05-15 10:45:00,
2013-05-15 12:50:00,75.7,49.7,29.87,ESE,113,2.0,12.3,40,0.00,,,0.00,WUHU216HW,2013-05-15 10:50:00,
2013-05-15 12:55:00,75.9,49.1,29.87,South,179,6.9,8.7,39,0.00,,,0.00,WUHU216HW,2013-05-15 10:55:00,
2013-05-15 13:00:00,75.5,49.6,29.87,SE,135,2.4,8.7,40,0.00,,,0.00,WUHU216HW,2013-05-15 11:00:00,
2013-05-15 13:05:00,75.5,49.6,29.87,ESE,105,3.2,8.5,40,0.00,,,0.00,WUHU216HW,2013-05-15 11:05:00,
2013-05-15 13:11:00,75.3,49.4,29.87,ESE,113,7.6,8.5,40,0.00,,,0.00,WUHU216HW,2013-05-15 11:11:00,
2013-05-15 13:17:00,75.0,49.1,29.87,ESE,113,7.3,7.6,40,0.00,,,0.00,WUHU216HW,2013-05-15 11:17:00,
2013-05-15 13:22:00,74.8,48.9,29.87,SSE,158,6.0,7.3,40,0.00,,,0.00,WUHU216HW,2013-05-15 11:22:00,
2013-05-15 13:27:00,74.3,48.4,29.87,SSW,203,2.4,7.3,40,0.00,,,0.00,WUHU216HW,2013-05-15 11:27:00,
2013-05-15 13:32:00,74.3,47.7,29.86,SSW,203,5.5,9.1,39,0.00,,,0.00,WUHU216HW,2013-05-15 11:32:00,
2013-05-15 13:38:00,74.4,47.8,29.86,SSE,158,2.4,9.1,39,0.00,,,0.00,WUHU216HW,2013-05-15 11:38:00,
2013-05-15 13:43:00,75.0,46.0,29.86,SE,127,6.0,7.8,36,0.00,,,0.00,WUHU216HW,2013-05-15 11:43:00,
2013-05-15 13:48:00,75.0,46.0,29.86,East,100,2.7,8.5,36,0.00,,,0.00,WUHU216HW,2013-05-15 11:48:00,
2013-05-15 13:53:00,75.0,44.5,29.86,SE,135,5.8,8.9,34,0.00,,,0.00,WUHU216HW,2013-05-15 11:53:00,
2013-05-15 13:58:00,75.0,43.8,29.86,South,185,9.8,11.8,33,0.00,,,0.00,WUHU216HW,2013-05-15 11:58:00,
2013-05-15 14:03:00,74.8,42.9,29.86,SSE,158,13.6,13.6,32,0.00,,,0.00,WUHU216HW,2013-05-15 12:03:00,
2013-05-15 14:08:00,75.0,43.0,29.86,SE,132,8.0,13.6,32,0.00,,,0.00,WUHU216HW,2013-05-15 12:08:00,
2013-05-15 14:13:00,75.0,42.3,29.86,SE,135,6.0,10.2,31,0.00,,,0.00,WUHU216HW,2013-05-15 12:13:00,
2013-05-15 14:19:00,75.0,42.3,29.86,South,180,10.0,10.0,31,0.00,,,0.00,WUHU216HW,2013-05-15 12:19:00,
2013-05-15 14:24:00,74.8,42.1,29.85,South,180,6.2,10.0,31,0.00,,,0.00,WUHU216HW,2013-05-15 12:24:00,
2013-05-15 14:29:00,74.4,41.0,29.86,ESE,113,4.6,6.2,30,0.00,,,0.00,WUHU216HW,2013-05-15 12:29:00,
2013-05-15 14:34:00,74.4,41.0,29.86,SSE,158,5.8,8.5,30,0.00,,,0.00,WUHU216HW,2013-05-15 12:34:00,
2013-05-15 14:39:00,74.4,40.0,29.86,SSE,167,6.9,7.8,29,0.00,,,0.00,WUHU216HW,2013-05-15 12:39:00,
2013-05-15 14:44:00,74.1,36.6,29.86,SSE,158,7.0,11.6,26,0.00,,,0.00,WUHU216HW,2013-05-15 12:44:00,
2013-05-15 14:49:00,74.1,34.8,29.86,South,190,6.1,11.6,24,0.00,,,0.00,WUHU216HW,2013-05-15 12:49:00,
2013-05-15 14:54:00,74.3,34.8,29.86,ESE,123,3.0,10.0,24,0.00,,,0.00,WUHU216HW,2013-05-15 12:54:00,
2013-05-15 15:00:00,74.4,33.9,29.85,East,90,2.4,5.3,23,0.00,,,0.00,WUHU216HW,2013-05-15 13:00:00,
2013-05-15 15:05:00,74.8,35.2,29.85,NE,45,2.0,5.1,24,0.00,,,0.00,WUHU216HW,2013-05-15 13:05:00,
2013-05-15 15:10:00,74.3,32.7,29.85,SSE,158,4.4,9.1,22,0.00,,,0.00,WUHU216HW,2013-05-15 13:10:00,
2013-05-15 15:16:00,73.9,32.4,29.85,SSE,165,6.9,9.1,22,0.00,,,0.00,WUHU216HW,2013-05-15 13:16:00,
2013-05-15 15:21:00,73.9,33.4,29.85,SSE,158,6.0,8.9,23,0.00,,,0.00,WUHU216HW,2013-05-15 13:21:00,
2013-05-15 15:26:00,73.9,34.5,29.85,ESE,113,6.6,9.1,24,0.00,,,0.00,WUHU216HW,2013-05-15 13:26:00,
2013-05-15 15:32:00,73.9,35.5,29.85,SSE,158,4.0,9.1,25,0.00,,,0.00,WUHU216HW,2013-05-15 13:32:00,
2013-05-15 15:37:00,73.7,35.2,29.85,SSE,161,2.3,7.3,25,0.00,,,0.00,WUHU216HW,2013-05-15 13:37:00,
2013-05-15 15:42:00,73.2,34.8,29.84,SE,135,5.1,12.7,25,0.00,,,0.00,WUHU216HW,2013-05-15 13:42:00,
2013-05-15 15:47:00,73.0,34.7,29.85,South,188,7.1,12.7,25,0.00,,,0.00,WUHU216HW,2013-05-15 13:47:00,
2013-05-15 15:52:00,72.6,34.4,29.84,SSE,158,8.2,13.6,25,0.00,,,0.00,WUHU216HW,2013-05-15 13:52:00,
2013-05-15 15:57:00,72.3,37.1,29.84,South,180,7.7,13.6,28,0.00,,,0.00,WUHU216HW,2013-05-15 13:57:00,
2013-05-15 16:02:00,72.1,38.0,29.84,South,180,10.2,12.9,29,0.00,,,0.00,WUHU216HW,2013-05-15 14:02:00,
2013-05-15 16:08:00,71.7,39.5,29.84,SE,135,6.7,10.2,31,0.00,,,0.00,WUHU216HW,2013-05-15 14:08:00,
2013-05-15 16:13:00,72.1,39.8,29.84,South,180,11.4,11.6,31,0.00,,,0.00,WUHU216HW,2013-05-15 14:13:00,
2013-05-15 16:18:00,72.5,40.1,29.84,ESE,113,7.8,11.6,31,0.00,,,0.00,WUHU216HW,2013-05-15 14:18:00,
2013-05-15 16:24:00,72.3,40.7,29.84,South,180,5.1,12.9,32,0.00,,,0.00,WUHU216HW,2013-05-15 14:24:00,
2013-05-15 16:29:00,72.3,39.2,29.84,South,180,10.5,12.9,30,0.00,,,0.00,WUHU216HW,2013-05-15 14:29:00,
2013-05-15 16:34:00,72.5,39.3,29.84,SSW,203,4.5,10.5,30,0.00,,,0.00,WUHU216HW,2013-05-15 14:34:00,
2013-05-15 16:39:00,72.5,39.2,29.84,SW,225,7.6,12.7,31,0.00,,,0.00,WUHU216HW,2013-05-15 14:39:00,
2013-05-15 16:44:00,72.3,40.7,29.84,SSW,207,7.8,12.7,32,0.00,,,0.00,WUHU216HW,2013-05-15 14:44:00,
2013-05-15 16:49:00,72.1,42.8,29.84,South,189,7.6,9.3,35,0.00,,,0.00,WUHU216HW,2013-05-15 14:49:00,
2013-05-15 16:54:00,72.3,42.2,29.84,South,176,5.6,9.1,34,0.00,,,0.00,WUHU216HW,2013-05-15 14:54:00,
2013-05-15 16:59:00,72.6,43.2,29.84,SE,144,4.0,8.0,35,0.00,,,0.00,WUHU216HW,2013-05-15 14:59:00,
2013-05-15 17:04:00,72.6,42.5,29.83,SSE,150,2.9,7.1,34,0.00,,,0.00,WUHU216HW,2013-05-15 15:04:00,
2013-05-15 17:09:00,72.8,40.4,29.83,SE,135,8.0,8.0,31,0.00,,,0.00,WUHU216HW,2013-05-15 15:09:00,
2013-05-15 17:14:00,72.8,39.6,29.83,SE,124,7.0,8.0,30,0.00,,,0.00,WUHU216HW,2013-05-15 15:14:00,
2013-05-15 17:20:00,72.8,40.4,29.83,WSW,248,4.4,8.0,32,0.00,,,0.00,WUHU216HW,2013-05-15 15:20:00,
2013-05-15 17:25:00,73.0,41.3,29.83,SSW,203,2.0,7.3,32,0.00,,,0.00,WUHU216HW,2013-05-15 15:25:00,
2013-05-15 17:30:00,73.0,40.5,29.82,South,180,4.0,6.2,31,0.00,,,0.00,WUHU216HW,2013-05-15 15:30:00,
2013-05-15 17:35:00,74.3,40.9,29.83,ESE,120,5.6,6.2,30,0.00,,,0.00,WUHU216HW,2013-05-15 15:35:00,
2013-05-15 17:40:00,74.4,41.8,29.82,ENE,68,2.0,9.8,31,0.00,,,0.00,WUHU216HW,2013-05-15 15:40:00,
2013-05-15 17:45:00,74.8,42.1,29.83,SE,135,8.2,9.8,31,0.00,,,0.00,WUHU216HW,2013-05-15 15:45:00,
2013-05-15 17:50:00,73.9,42.0,29.84,SSE,158,6.4,8.2,32,0.00,,,0.00,WUHU216HW,2013-05-15 15:50:00,
2013-05-15 17:55:00,73.4,42.3,29.83,ESE,113,2.2,8.5,33,0.00,,,0.00,WUHU216HW,2013-05-15 15:55:00,
2013-05-15 18:00:00,73.0,42.8,29.83,SSW,197,3.4,8.5,34,0.00,,,0.00,WUHU216HW,2013-05-15 16:00:00,
2013-05-15 18:05:00,72.6,42.5,29.84,ESE,123,4.0,6.7,34,0.00,,,0.00,WUHU216HW,2013-05-15 16:05:00,
2013-05-15 18:10:00,72.3,42.9,29.84,South,180,2.2,6.7,35,0.00,,,0.00,WUHU216HW,2013-05-15 16:10:00,
2013-05-15 18:15:00,72.1,43.5,29.84,SE,135,2.4,3.8,36,0.00,,,0.00,WUHU216HW,2013-05-15 16:15:00,
2013-05-15 18:21:00,71.7,43.2,29.84,SE,135,3.1,6.2,36,0.00,,,0.00,WUHU216HW,2013-05-15 16:21:00,
2013-05-15 18:26:00,71.4,42.9,29.84,SSW,203,2.0,6.2,36,0.00,,,0.00,WUHU216HW,2013-05-15 16:26:00,
2013-05-15 18:31:00,71.2,42.7,29.83,SE,135,5.1,7.8,36,0.00,,,0.00,WUHU216HW,2013-05-15 16:31:00,
2013-05-15 18:36:00,71.2,43.5,29.83,SE,135,4.4,7.8,37,0.00,,,0.00,WUHU216HW,2013-05-15 16:36:00,
2013-05-15 18:41:00,71.2,43.5,29.84,East,90,2.4,6.2,37,0.00,,,0.00,WUHU216HW,2013-05-15 16:41:00,
2013-05-15 18:46:00,71.2,44.2,29.84,SSW,203,0.0,2.6,38,0.00,,,0.00,WUHU216HW,2013-05-15 16:46:00,
2013-05-15 18:51:00,71.2,44.2,29.84,SSW,203,3.5,3.5,38,0.00,,,0.00,WUHU216HW,2013-05-15 16:51:00,
2013-05-15 18:56:00,71.2,44.2,29.83,SE,135,0.0,3.5,38,0.00,,,0.00,WUHU216HW,2013-05-15 16:56:00,
2013-05-15 19:01:00,70.8,44.6,29.84,SE,135,1.1,3.8,39,0.00,,,0.00,WUHU216HW,2013-05-15 17:01:00,
2013-05-15 19:06:00,70.7,44.4,29.84,SE,135,1.5,3.8,39,0.00,,,0.00,WUHU216HW,2013-05-15 17:06:00,
2013-05-15 19:11:00,70.5,44.3,29.84,South,180,2.0,2.0,39,0.00,,,0.00,WUHU216HW,2013-05-15 17:11:00,
2013-05-15 19:16:00,70.5,45.0,29.82,ENE,68,0.0,2.0,40,0.00,,,0.00,WUHU216HW,2013-05-15 17:16:00,
2013-05-15 19:21:00,70.5,45.0,29.83,SW,225,2.0,2.0,40,0.00,,,0.00,WUHU216HW,2013-05-15 17:21:00,
2013-05-15 19:26:00,70.1,44.7,29.83,South,180,3.3,3.3,40,0.00,,,0.00,WUHU216HW,2013-05-15 17:26:00,
2013-05-15 19:31:00,69.9,44.5,29.83,NW,315,0.0,3.3,40,0.00,,,0.00,WUHU216HW,2013-05-15 17:31:00,
2013-05-15 19:36:00,69.9,50.5,29.83,NNW,338,1.7,2.6,50,0.00,,,0.00,WUHU216HW,2013-05-15 17:36:00,
2013-05-15 19:42:00,69.0,51.6,29.83,NW,322,2.1,2.9,54,0.00,,,0.00,WUHU216HW,2013-05-15 17:42:00,
2013-05-15 19:47:00,68.5,53.6,29.83,WNW,301,1.0,4.0,59,0.00,,,0.00,WUHU216HW,2013-05-15 17:47:00,
2013-05-15 19:52:00,68.1,53.4,29.83,WNW,293,2.9,4.0,60,0.00,,,0.00,WUHU216HW,2013-05-15 17:52:00,
2013-05-15 19:57:00,67.8,54.7,29.83,North,0,2.6,3.8,63,0.00,,,0.00,WUHU216HW,2013-05-15 17:57:00,
2013-05-15 20:02:00,67.6,54.1,29.84,NW,315,0.0,3.8,62,0.00,,,0.00,WUHU216HW,2013-05-15 18:02:00,
2013-05-15 20:07:00,67.6,54.5,29.84,NNE,23,0.0,1.3,63,0.00,,,0.00,WUHU216HW,2013-05-15 18:07:00,
2013-05-15 20:12:00,67.6,54.5,29.84,ESE,113,0.0,1.3,63,0.00,,,0.00,WUHU216HW,2013-05-15 18:12:00,
2013-05-15 20:17:00,67.4,54.8,29.83,ENE,71,2.0,2.2,64,0.00,,,0.00,WUHU216HW,2013-05-15 18:17:00,
2013-05-15 20:22:00,67.2,54.6,29.83,East,90,1.3,2.2,64,0.00,,,0.00,WUHU216HW,2013-05-15 18:22:00,
2013-05-15 20:28:00,67.1,54.8,29.83,ENE,68,3.3,3.3,65,0.00,,,0.00,WUHU216HW,2013-05-15 18:28:00,
2013-05-15 20:33:00,66.9,54.7,29.82,ESE,113,0.0,3.3,65,0.00,,,0.00,WUHU216HW,2013-05-15 18:33:00,
2013-05-15 20:38:00,67.1,55.3,29.82,NNE,23,2.2,2.4,66,0.00,,,0.00,WUHU216HW,2013-05-15 18:38:00,
2013-05-15 20:43:00,67.1,54.8,29.81,East,90,0.8,2.2,65,0.00,,,0.00,WUHU216HW,2013-05-15 18:43:00,
2013-05-15 20:48:00,67.1,54.8,29.82,NNE,23,0.0,1.5,65,0.00,,,0.00,WUHU216HW,2013-05-15 18:48:00,
2013-05-15 20:53:00,67.1,54.8,29.82,NW,315,0.0,1.5,65,0.00,,,0.00,WUHU216HW,2013-05-15 18:53:00,
2013-05-15 20:58:00,66.9,54.9,29.82,NW,315,0.0,1.3,66,0.00,,,0.00,WUHU216HW,2013-05-15 18:58:00,
2013-05-15 21:03:00,66.7,54.9,29.82,ENE,68,0.0,1.3,66,0.00,,,0.00,WUHU216HW,2013-05-15 19:03:00,
2013-05-15 21:09:00,66.7,55.4,29.82,NE,45,1.0,2.6,67,0.00,,,0.00,WUHU216HW,2013-05-15 19:09:00,
2013-05-15 21:14:00,66.5,54.8,29.82,NE,45,0.0,2.6,66,0.00,,,0.00,WUHU216HW,2013-05-15 19:14:00,
2013-05-15 21:19:00,66.3,55.0,29.82,East,90,0.0,0.0,67,0.00,,,0.00,WUHU216HW,2013-05-15 19:19:00,
2013-05-15 21:24:00,66.0,54.6,29.82,East,90,0.0,0.0,67,0.00,,,0.00,WUHU216HW,2013-05-15 19:24:00,
2013-05-15 21:26:00,66.2,54.8,29.82,South,180,0.6,0.6,67,0.00,,,0.00,WUHU216HW,2013-05-15 19:26:00,
2013-05-15 21:29:00,66.2,54.8,29.82,South,180,0.6,0.6,67,0.00,,,0.00,WUHU216HW,2013-05-15 19:29:00,
2013-05-15 21:34:00,66.2,54.8,29.82,South,180,0.6,0.6,67,0.00,,,0.00,WUHU216HW,2013-05-15 19:34:00,